Regional Weather Roundup
Issued by NWS Jackson, KY

Home | Current Version | Previous Version | Graphics & Text | Print | Product List | Glossary On
Versions: 1 2 3 4 5 6 7 8 9 10 11 12 13 14 15 16 17 18 19 20 21 22 23 24 25 26 27 28 29 30 31 32 33 34 35 36 37 38 39 40 41 42 43 44 45 46 47 48 49 50
158
ASUS43 KJKL 131310
RWRJKL

EAST KENTUCKY HOURLY WEATHER ROUNDUP
NATIONAL WEATHER SERVICE JACKSON KY
800 AM EST SAT FEB 13 2016

NOTE: "FAIR" INDICATES FEW OR NO CLOUDS BELOW 12,000 FEET WITH
NO SIGNIFICANT WEATHER AND/OR OBSTRUCTIONS TO VISIBILITY.

* THESE REPORTS ARE NOT UNDER NWS QUALITY CONTROL AND MAY NOT
  REPORT WEATHER SUCH AS PRECIPITATION AND FOG.

KYZ079-080-083-085-087-088-110-112-115-119-120-131400
...EASTERN KENTUCKY...

CITY           SKY/WX    TMP DP  RH WIND       PRES   REMARKS
JACKSON        MOCLDY    14   4  64 NW8       30.40R WCI   3
LONDON         CLOUDY    17   5  59 N8        30.43R WCI   7
SOMERSET*      MOCLDY    18   5  57 N8G17     30.48R WCI   7
MONTICELLO*    CLEAR     16   8  71 N14G20    30.48R WCI   2
WILLIAMSBURG*  CLOUDY    16  10  79 NW6       30.43R WCI   7
MIDDLESBORO*   CLOUDY    20  12  70 N9        30.41R WCI  10
HARLAN APT*    CLOUDY    19  10  68 W6        30.37R WCI  11
HAZARD APT*    FLURRIES  14   7  73 N7        30.41R WCI   4
BLACK MTN*       N/A      5   3  92 VRB6        N/A  WCI  -6
BIG SANDY*     PTSUNNY   14   3  62 NW6G16    30.41R WCI   5
MOREHEAD APT*  CLOUDY    12   3  67 NW12      30.47R WCI  -2
$$

KYZ035-036-041-042-044-050-067-078-099-131400
...CENTRAL KENTUCKY...

CITY           SKY/WX    TMP DP  RH WIND       PRES   REMARKS
MT STERLING*   CLEAR     14   5  67 N12       30.47R WCI   0
DANVILLE*      PTCLDY    14   7  73 N8        30.49R WCI   3
RICHMOND*      PTCLDY    14   7  73 NW7       30.46R WCI   4
LEXINGTON      LGT SNOW  14   7  73 N12       30.48R WCI   0
FRANKFORT      CLEAR     13   1  59 NW8       30.49R WCI   2
$$

KYZ091>093-OHZ055-061-077-WVZ005-015-034-035-042-131400
...SOUTHERN OHIO/WEST VIRGINIA...

CITY           SKY/WX    TMP DP  RH WIND       PRES   REMARKS
COVINGTON      CLOUDY    11   2  67 NW10      30.48R WCI  -3
COLUMBUS       PTCLDY     6  -7  54 NW13      30.44R WCI -10
DAYTON         PTCLDY     3  -6  66 NW7       30.46R WCI  -9
WILMINGTON     CLEAR      7  -5  57 NW6       30.44R WCI  -3
HUNTINGTON     CLOUDY    14   3  61 NW8       30.43R WCI   3
CHARLESTON     FLURRIES  14   4  64 NW15G22   30.39R WCI  -1
PINEVILLE*     LGT SNOW  13   7  75 MISG      30.35R VSB 3/4
BECKLEY        LGT SNOW   8   1  73 NW9G20    30.21R WCI  -5
$$

VAZ002-007-008-TNZ017-027-036-066-071-131400
...SOUTHWEST VIRGINIA/EAST TENNESSEE...

CITY           SKY/WX    TMP DP  RH WIND       PRES   REMARKS
BRISTOL        CLOUDY    20   7  57 NW8       30.32R WCI  10
KNOXVILLE      MOCLDY    24  11  57 NW9       30.40R WCI  14
OAK RIDGE      CLOUDY    23   9  55 N8        30.43R WCI  14
CROSSVILLE     CLEAR     17   9  70 NW10      30.36R WCI   5
NASHVILLE      PTCLDY    20   4  50 N9        30.53R WCI   9
$$

...KEY TO REMARKS...
VSB - VISIBILITY IN MILES
WCI - WIND CHILL INDEX
HX  - HEAT INDEX

$$




USA.gov is the U.S. government's official web portal to all federal, state and local government web resources and services.